Regional Weather Roundup
Issued by NWS

Home | Current Version | Previous Version | Graphics & Text | Print | Product List | Glossary On
Versions: 1 2 3 4 5 6 7 8 9 10 11 12 13 14 15 16 17 18 19 20 21 22 23 24 25 26 27 28 29 30 31 32 33 34 35 36 37 38 39 40 41 42 43 44 45 46 47 48 49 50
706
ASUS43 KLSX 250107
RWRMO

WEATHER SUMMARY FOR MISSOURI
NATIONAL WEATHER SERVICE SPRINGFIELD MO
800 PM CDT SUN JUL 24 2016

NOTE: "FAIR" INDICATES FEW OR NO CLOUDS BELOW 12,000 FEET WITH NO
       SIGNIFICANT WEATHER AND/OR OBSTRUCTIONS TO VISIBILITY.
       CURRENT SKY AND/OR WEATHER CONDITIONS ARE NOT AVAILABLE FOR
       CHILLICOTHE AND FARMINGTON.

MOZ001>031-035>038-043-044-053-054-250200-
...NORTHERN AND WESTERN MISSOURI...

CITY           SKY/WX    TMP DP  RH WIND       PRES   REMARKS
KANSAS CTY INT CLOUDY    82  69  64 N20       29.96S
KANSAS C DTWN  CLOUDY    88  79  74 N12       29.93S HX 103
LEE`S SUMMIT   CLOUDY    87  77  72 N7        29.95S HX  99
ST JOSEPH      CLOUDY    80  67  64 N10       29.97S
CHILLICOTHE      N/A     84  72  67 VRB6      29.97R
KIRKSVILLE     CLOUDY    78  68  71 NE7       29.96F

$$
MOZ066>068-077>081-088>096-101>105-250200-
...SOUTHWEST MISSOURI...

CITY           SKY/WX    TMP DP  RH WIND       PRES   REMARKS
SPRINGFIELD    CLEAR     93  72  50 SE5       29.95S HX 101
JOPLIN         CLEAR     90  78  68 CALM      29.94R HX 104
BRANSON        MOCLDY    86  75  70 CALM      29.98S HX  95

$$
MOZ032>034-039>042-045>050-055>058-069>072-250200-
...CENTRAL MISSOURI...

CITY           SKY/WX    TMP DP  RH WIND       PRES   REMARKS
COLUMBIA       CLEAR     89  79  72 NW5       29.93R HX 104
JEFFERSON CITY CLEAR     91  77  63 NW3       29.91R HX 104
ROLLA          PTCLDY    88  77  69 SW3       29.94R HX 100
SEDALIA        CLEAR     91  80  70 CALM      29.94R HX 109
WHITEMAN AFB   PTCLDY    89  80  75 N5        29.92R HX 106
OSAGE BEACH    CLEAR     86  82  88 CALM      29.94S HX 104

$$
MOZ051-052-059>065-250200-
...EAST CENTRAL MISSOURI...

CITY           SKY/WX    TMP DP  RH WIND       PRES   REMARKS
ST LOUIS INTL  PTCLDY    93  78  61 S12       29.91R HX 108
SPIRIT OF STL  PTCLDY    91  79  67 S5        29.89R HX 107
ST CHARLES     PTCLDY    90  80  72 S7        29.89R HX 107

$$
MOZ072>076-082>087-097>100-106>115-250200-
...SOUTH CENTRAL AND SOUTHEAST MISSOURI...

CITY           SKY/WX    TMP DP  RH WIND       PRES   REMARKS
CAPE GIRARDEAU CLEAR     85  79  82 CALM      29.94R HX  98
FARMINGTON     PTCLDY    85  79  82 S7        29.97S HX  98
POPLAR BLUFF   CLOUDY    87  77  72 CALM      29.94R HX  99
WEST PLAINS    PTCLDY    87  76  69 E3        30.00S HX  97

$$



USA.gov is the U.S. government's official web portal to all federal, state and local government web resources and services.